This is the latest recevied weather packets stored in our database for station/object N3WPH. If no packets are shown the sender has not sent any weather packets the latest 10 day(s).
| Time | Temp. | Humidity | Pressure | Rain* | Wind** | Luminosity | Snow |
|---|---|---|---|---|---|---|---|
| 1777901210 | 12.22° C | 49% | 1012.4 hPa | 0 mm | - | 135 W/m² | - |
| 1777900907 | 12.22° C | 49% | 1012.5 hPa | 0 mm | - | 149 W/m² | - |
| 1777900604 | 12.22° C | 50% | 1012.5 hPa | 0 mm | - | 138 W/m² | - |
| 1777900301 | 12.22° C | 48% | 1012.6 hPa | 0 mm | - | 169 W/m² | - |
| 1777899998 | 12.22° C | 51% | 1012.5 hPa | 0 mm | - | 167 W/m² | - |
| 1777899694 | 12.22° C | 48% | 1012.7 hPa | 0 mm | - | 157 W/m² | - |
| 1777899392 | 12.22° C | 50% | 1012.8 hPa | 0 mm | - | 154 W/m² | - |
| 1777899090 | 11.67° C | 49% | 1012.7 hPa | 0 mm | - | 156 W/m² | - |
| 1777898786 | 11.67° C | 48% | 1012.6 hPa | 0 mm | - | 152 W/m² | - |
| 1777898484 | 12.22° C | 50% | 1012.7 hPa | 0 mm | - | 140 W/m² | - |
| 1777898182 | 12.78° C | 47% | 1012.7 hPa | 0 mm | - | 142 W/m² | - |
| 1777897879 | 11.67° C | 50% | 1012.8 hPa | 0 mm | - | 241 W/m² | - |
| 1777897575 | 11.67° C | 50% | 1012.6 hPa | 0 mm | - | 139 W/m² | - |
| 1777897270 | 12.22° C | 49% | 1012.9 hPa | 0 mm | - | 134 W/m² | - |
| 1777896967 | 11.67° C | 49% | 1012.7 hPa | 0 mm | - | 334 W/m² | - |
| 1777896664 | 11.11° C | 52% | 1012.8 hPa | 0 mm | - | 269 W/m² | - |
| 1777896361 | 11.11° C | 53% | 1012.8 hPa | 0 mm | - | 229 W/m² | - |
| 1777896059 | 10.56° C | 53% | 1012.8 hPa | 0 mm | - | 56 W/m² | - |
| 1777895756 | 10° C | 53% | 1012.8 hPa | 0 mm | - | 183 W/m² | - |
| 1777895453 | 10° C | 55% | 1012.8 hPa | 0 mm | - | 133 W/m² | - |
| 1777895151 | 9.44° C | 56% | 1012.7 hPa | 0 mm | - | 118 W/m² | - |
| 1777894848 | 8.89° C | 58% | 1012.9 hPa | 0 mm | - | 72 W/m² | - |
| 1777894545 | 8.89° C | 59% | 1012.8 hPa | 0 mm | - | 88 W/m² | - |
| 1777894243 | 8.33° C | 63% | 1012.9 hPa | 0 mm | - | 56 W/m² | - |
| 1777893939 | 7.78° C | 63% | 1013 hPa | 0 mm | - | 44 W/m² | - |
* Rain latest hour (hover to see other rain measurements)
** Current wind speed in m/s (hover to see current wind gust speed)